Regional Weather Roundup
Issued by NWS

Home | Current Version | Previous Version | Text Only | Print | Product List | Glossary Off
Versions: 1 2 3 4 5 6 7 8 9 10 11 12 13 14 15 16 17 18 19 20 21 22 23 24 25 26 27 28 29 30 31 32 33 34 35 36 37 38 39 40 41 42 43 44 45 46 47 48 49 50

189
ASUS43 KFSD 201510
RWRSD

WEATHER ROUNDUP FOR SOUTH DAKOTA
NATIONAL WEATHER SERVICE SIOUX FALLS SD
1000 AM CDT SUN AUG 20 2017

NOTE: "FAIR" INDICATES FEW OR NO CLOUDS BELOW 12,000 FEET WITH NO
SIGNIFICANT WEATHER AND/OR OBSTRUCTIONS TO VISIBILITY.


SDZ001>005-009-010-012>017-201600-
NORTHWEST AND NORTH CENTRAL SOUTH DAKOTA

CITY           SKY/WX    TMP DP  RH WIND       PRES   REMARKS
BUFFALO          N/A     64  42  44 SE3       30.06R
FAITH            N/A     64  46  52 NE16      30.06R
MOBRIDGE       PTSUNNY   62  51  67 N10       29.99F
$$

SDZ012>016-024>037-041>051-057-063-072>074-201600-
SOUTHWEST AND SOUTH CENTRAL SOUTH DAKOTA

CITY           SKY/WX    TMP DP  RH WIND       PRES   REMARKS
RAPID CTY ARPT SUNNY     67  47  48 N8        30.11R
PIERRE         MOSUNNY   70  52  52 E20       29.96F
CUSTER         SUNNY     62  45  53 E14       30.18R
ELLSWORTH AFB  SUNNY     66  46  47 N9        30.10R
PHILIP         PTSUNNY   70  53  54 E7        30.03R
PINE RIDGE     SUNNY     70  54  56 E8        30.08R
SPEARFISH      FAIR      64  45  48 E12       30.13S
WINNER         FAIR      72  61  68 NE9       30.00S
$$

SDZ004>011-016>023-039-040-201600-
NORTHEAST SOUTH DAKOTA

CITY           SKY/WX    TMP DP  RH WIND       PRES   REMARKS
ABERDEEN       CLOUDY    64  53  67 N13       29.99F
WATERTOWN      CLOUDY    65  56  72 NE10      29.97R
BROOKINGS      MOSUNNY   70  61  73 NE13      29.96S
SISSETON         N/A     64  55  72 N16       29.96F
$$

SDZ017-020-022-023-036>040-048>070-201600-
SOUTHEAST SOUTH DAKOTA

CITY           SKY/WX    TMP DP  RH WIND       PRES   REMARKS
SIOUX FALLS    MOSUNNY   74  66  76 NE7       29.95R
HURON          CLOUDY    68  58  70 N12       29.98R
CHAMBERLAIN    SUNNY     73  60  62 NE8       30.00R
MITCHELL       SUNNY     71  66  84 SE9       29.94F
YANKTON        SUNNY     74  66  76 S3        29.94R
$$

ABBREVIATIONS USED IN REMARKS
   TC - TEMPERATURE IN CELSIUS
  WCI - WIND CHILL INDEX
   HX - HEAT INDEX
  VSB - VISIBILITY





USA.gov is the U.S. government's official web portal to all federal, state and local government web resources and services.